Location: Daytona Beach
(29.2106°N, 81.0231°W)
Time: 00:28:53
(UTC-04:00)

ISS - Pass Details

Date: 02 July 2021
Orbit: 419 x 421 km, 51.6° (Epoch: 03 August)

Event Time Altitude Azimuth Distance (km) Brightness Sun altitude
Exits shadow 03:44:03 10° 346° (NNW) 1,488 -0.5 -28.4°
Drops below altitude 10° 03:44:07 10° 347° (NNW) 1,498 -0.5 -28.4°
Sets 03:47:25 0° 22° (NNE) 2,364 1.2 -28.0°
